Weather in Posad

Russia / Perm Krai     57°25′16″N   57°15′35″E
temp.,
°C
wind,
m/s
gust,
m/s
humid.,
%
clouds,
%
prec.,
mm/h
press.,
hPa
HPBL,
m
23 january, sat
sat2323:00−29ene489142 0.0 1027168
02:00−30e47914 0.0 1030119
05:00−31e469249 0.0 103294
08:00−29e4793100 0.0 1032164
11:00−28ese479184 0.0 1033220
14:00−23se4794100 0.0 1032283
17:00−21se4894100 0.0 1031260
20:00−20se5898100 0.1 1031251
24 january, sun
sun2423:00−19se5897100 0.6 1030265
02:00−18se5896100 0.2 1029244
05:00−16ese4896100 1.3 1026270
08:00−15se51095100 0.3 1027352
11:00−13sse61094100 0.6 1026442
14:00−10s5895100 0.9 1024509
17:00−9ssw5995100 2.0 1023422
20:00−8ssw3796100 0.9 1023258
25 january, mon
mon2523:00−7sw1297100 1.4 102422
02:00−7ssw1296100 0.0 102421
05:00−3sw119999 0.6 102551
08:00+1wsw2599100 0.4 1025159
11:00−8ene239699 1.3 102781
14:00−5ene2396100 0.4 1027101
17:00−1sw6119499 0.7 1026426
20:00−2sw6129695 0.2 1027464
26 january, tue
tue2623:00−1sw6119797 1.1 1027542
02:00−3sw6119497 0.3 1027436
05:00−3sw6129690 0.8 1028494
08:00−4sw6119398 0.3 1028543
11:00−3sw61089100 0.4 1028688
14:00−3sw61090100 0.1 1028775
17:00−2sw51192100 0.1 1026706
20:00−3sw51094100 0.1 1026618
27 january, wed
wed2723:00−3sw51196100 0.5 1025606
02:00−3sw61092100 1.1 1026544
05:00−5sw61093100 1.1 1026436
08:00−9ssw41194100 0.1 1024407
11:00−7ssw5892100 0.1 1026435
14:00−8sw5891100 0.1 1027526
17:00−5sw4896100 0.7 1025358
20:00−9ssw4109595 0.1 1027285